• In Uzbekistan
  • List of Countries
  • For 7 days
  • Water Temperature
  • Satellite Maps
  • Weather Map
  • Weather Widgets
  • user-avatar
    Login

    Hourly Weather Lubango

    Today, 21 January, Saturday

    Time Temperature Precipitation Wind Pressure Humidity
    00:00 +16°C° 0.2 mm 1 mps 608 mmHg 81%
    01:00 +15°C° 0 mm 1 mps 608 mmHg 81%
    02:00 +15°C° 0.2 mm 1 mps 607 mmHg 83%
    03:00 +14°C° 0.2 mm 0 mps 607 mmHg 85%
    04:00 +13°C° 0.2 mm 0 mps 607 mmHg 87%
    05:00 +14°C° 0.4 mm 0 mps 607 mmHg 83%
    06:00 +15°C° 0.4 mm 0 mps 608 mmHg 80%
    07:00 +16°C° 0 mm 0 mps 609 mmHg 73%
    08:00 +18°C° 0.1 mm 0 mps 609 mmHg 65%
    09:00 +20°C° 0.1 mm 0 mps 610 mmHg 56%
    10:00 +24°C° 0.1 mm 1 mps 611 mmHg 48%
    11:00 +25°C° 0.2 mm 1 mps 611 mmHg 45%
    12:00 +26°C° 0.2 mm 1 mps 611 mmHg 42%
    13:00 +27°C° 0.2 mm 2 mps 611 mmHg 40%
    14:00 +26°C° 0.2 mm 2 mps 610 mmHg 41%
    15:00 +26°C° 0.2 mm 2 mps 610 mmHg 42%
    16:00 +26°C° 0.2 mm 2 mps 610 mmHg 43%
    17:00 +24°C° 0 mm 2 mps 609 mmHg 50%
    18:00 +20°C° 0 mm 2 mps 609 mmHg 57%
    19:00 +18°C° 0 mm 2 mps 608 mmHg 64%
    20:00 +18°C° 0 mm 2 mps 608 mmHg 68%
    21:00 +18°C° 0 mm 1 mps 609 mmHg 72%
    22:00 +16°C° 0 mm 1 mps 609 mmHg 76%
    23:00 +16°C° 0 mm 1 mps 609 mmHg 78%

    Tomorrow, 22 January, Sunday

    Time Temperature Precipitation Wind Pressure Humidity
    00:00 +16°C° 0 mm 1 mps 609 mmHg 79%
    01:00 +14°C° 0 mm 0 mps 608 mmHg 81%
    02:00 +14°C° 0.5 mm 0 mps 608 mmHg 81%
    03:00 +14°C° 0.5 mm 0 mps 608 mmHg 81%
    04:00 +14°C° 0.5 mm 0 mps 608 mmHg 81%
    05:00 +15°C° 0.4 mm 0 mps 608 mmHg 79%
    06:00 +15°C° 0.4 mm 0 mps 608 mmHg 78%
    07:00 +16°C° 0.4 mm 0 mps 609 mmHg 76%
    08:00 +17°C° 0.3 mm 0 mps 609 mmHg 70%
    09:00 +18°C° 0.3 mm 0 mps 610 mmHg 64%
    10:00 +22°C° 0.3 mm 1 mps 610 mmHg 58%
    11:00 +23°C° 0.3 mm 1 mps 611 mmHg 54%
    12:00 +25°C° 0.3 mm 1 mps 611 mmHg 49%
    13:00 +26°C° 0.3 mm 1 mps 611 mmHg 44%
    14:00 +26°C° 0.8 mm 1 mps 610 mmHg 45%
    15:00 +26°C° 0.8 mm 1 mps 610 mmHg 46%
    16:00 +26°C° 0.8 mm 2 mps 609 mmHg 48%
    17:00 +23°C° 0.1 mm 2 mps 609 mmHg 55%
    18:00 +20°C° 0.1 mm 2 mps 608 mmHg 63%
    19:00 +18°C° 0.1 mm 2 mps 608 mmHg 70%
    20:00 +17°C° 0.1 mm 2 mps 608 mmHg 75%
    21:00 +16°C° 0.1 mm 1 mps 608 mmHg 79%
    22:00 +16°C° 0.1 mm 1 mps 609 mmHg 83%
    23:00 +15°C° 0.1 mm 1 mps 608 mmHg 84%

    Day after tomorrow, 23 January, Monday

    Time Temperature Precipitation Wind Pressure Humidity
    00:00 +15°C° 0.1 mm 1 mps 608 mmHg 86%
    01:00 +15°C° 0.1 mm 1 mps 608 mmHg 87%
    02:00 +14°C° 0.1 mm 1 mps 608 mmHg 87%
    03:00 +14°C° 0.1 mm 1 mps 607 mmHg 88%
    04:00 +14°C° 0.1 mm 1 mps 607 mmHg 89%
    05:00 +14°C° 0 mm 1 mps 608 mmHg 86%
    06:00 +15°C° 0 mm 1 mps 608 mmHg 83%
    07:00 +16°C° 0 mm 1 mps 609 mmHg 81%
    08:00 +19°C° 0 mm 1 mps 610 mmHg 71%
    09:00 +21°C° 0 mm 1 mps 610 mmHg 62%
    10:00 +23°C° 0 mm 1 mps 611 mmHg 53%
    11:00 +24°C° 0.3 mm 2 mps 611 mmHg 51%
    12:00 +25°C° 0.3 mm 2 mps 611 mmHg 49%
    13:00 +26°C° 0.3 mm 2 mps 611 mmHg 47%
    14:00 +25°C° 0.7 mm 2 mps 610 mmHg 51%
    15:00 +24°C° 0.7 mm 3 mps 609 mmHg 56%
    16:00 +22°C° 0.7 mm 3 mps 608 mmHg 60%
    17:00 +20°C° 0.5 mm 2 mps 608 mmHg 67%
    18:00 +19°C° 0.5 mm 2 mps 608 mmHg 73%
    19:00 +17°C° 0.5 mm 2 mps 608 mmHg 79%
    20:00 +16°C° 1.2 mm 1 mps 608 mmHg 81%
    21:00 +16°C° 1.2 mm 1 mps 609 mmHg 84%
    22:00 +15°C° 1.2 mm 1 mps 609 mmHg 86%
    23:00 +15°C° 2.1 mm 1 mps 608 mmHg 88%

    24 January, Tuesday

    Time Temperature Precipitation Wind Pressure Humidity
    00:00 +15°C° 2.1 mm 1 mps 608 mmHg 89%
    01:00 +14°C° 2.1 mm 2 mps 608 mmHg 91%
    02:00 +14°C° 4.1 mm 1 mps 608 mmHg 92%
    03:00 +14°C° 4.1 mm 1 mps 607 mmHg 93%
    04:00 +14°C° 4.1 mm 1 mps 607 mmHg 94%
    05:00 +14°C° 5.6 mm 1 mps 608 mmHg 94%
    06:00 +14°C° 5.6 mm 2 mps 608 mmHg 94%
    07:00 +14°C° 5.6 mm 2 mps 608 mmHg 94%
    08:00 +14°C° 2.8 mm 2 mps 609 mmHg 93%
    09:00 +14°C° 2.8 mm 2 mps 609 mmHg 93%
    10:00 +14°C° 2.8 mm 2 mps 609 mmHg 92%
    11:00 +14°C° 2.5 mm 2 mps 609 mmHg 91%
    12:00 +14°C° 2.5 mm 2 mps 609 mmHg 90%
    13:00 +14°C° 2.5 mm 2 mps 608 mmHg 89%
    14:00 +14°C° 1.8 mm 2 mps 608 mmHg 90%
    15:00 +14°C° 1.8 mm 2 mps 608 mmHg 90%
    16:00 +14°C° 1.8 mm 2 mps 608 mmHg 90%
    17:00 +14°C° 0.7 mm 1 mps 608 mmHg 91%
    18:00 +13°C° 0.7 mm 1 mps 608 mmHg 92%
    19:00 +13°C° 0.7 mm 1 mps 608 mmHg 93%
    20:00 +13°C° 0.6 mm 1 mps 608 mmHg 94%
    21:00 +13°C° 0.6 mm 1 mps 609 mmHg 94%
    22:00 +13°C° 0.6 mm 1 mps 609 mmHg 94%
    23:00 +13°C° 0.3 mm 1 mps 608 mmHg 95%

    25 January, Wednesday

    Time Temperature Precipitation Wind Pressure Humidity
    00:00 +13°C° 0.3 mm 1 mps 608 mmHg 95%
    01:00 +12°C° 0.3 mm 1 mps 608 mmHg 95%
    02:00 +12°C° 0.1 mm 1 mps 607 mmHg 95%
    03:00 +12°C° 0.1 mm 1 mps 607 mmHg 95%
    04:00 +12°C° 0.1 mm 1 mps 607 mmHg 94%
    05:00 +12°C° 0 mm 1 mps 607 mmHg 92%
    06:00 +13°C° 0 mm 1 mps 608 mmHg 89%
    07:00 +13°C° 0 mm 1 mps 608 mmHg 87%
    08:00 +14°C° 0.1 mm 1 mps 609 mmHg 81%
    09:00 +15°C° 0.1 mm 1 mps 609 mmHg 76%
    10:00 +18°C° 0.1 mm 1 mps 610 mmHg 70%
    11:00 +17°C° 0.1 mm 2 mps 610 mmHg 66%
    12:00 +18°C° 0.1 mm 2 mps 610 mmHg 62%
    13:00 +19°C° 0.1 mm 2 mps 610 mmHg 58%
    14:00 +19°C° 0 mm 2 mps 610 mmHg 59%
    15:00 +18°C° 0 mm 2 mps 609 mmHg 60%
    16:00 +18°C° 0 mm 2 mps 609 mmHg 61%
    17:00 +17°C° 0 mm 2 mps 609 mmHg 67%
    18:00 +16°C° 0 mm 1 mps 608 mmHg 72%
    19:00 +14°C° 0 mm 1 mps 608 mmHg 78%
    20:00 +14°C° 0 mm 1 mps 608 mmHg 78%
    21:00 +14°C° 0 mm 1 mps 608 mmHg 78%
    22:00 +13°C° 0 mm 1 mps 609 mmHg 79%
    23:00 +13°C° 0 mm 1 mps 608 mmHg 79%

    26 January, Thursday

    Time Temperature Precipitation Wind Pressure Humidity
    00:00 +13°C° 0 mm 1 mps 608 mmHg 80%
    01:00 +11°C° 0 mm 0 mps 608 mmHg 80%
    02:00 +11°C° 0 mm 0 mps 607 mmHg 80%
    03:00 +11°C° 0 mm 0 mps 607 mmHg 80%
    04:00 +12°C° 0 mm 1 mps 607 mmHg 80%
    05:00 +11°C° 0 mm 0 mps 608 mmHg 77%
    06:00 +12°C° 0 mm 0 mps 608 mmHg 75%
    07:00 +13°C° 0 mm 0 mps 609 mmHg 73%
    08:00 +18°C° 0 mm 1 mps 610 mmHg 63%
    09:00 +20°C° 0 mm 1 mps 611 mmHg 53%
    10:00 +23°C° 0 mm 1 mps 612 mmHg 43%
    11:00 +23°C° 0 mm 1 mps 612 mmHg 39%
    12:00 +24°C° 0 mm 2 mps 612 mmHg 36%
    13:00 +25°C° 0 mm 2 mps 612 mmHg 33%
    14:00 +25°C° 0 mm 3 mps 611 mmHg 33%
    15:00 +25°C° 0 mm 3 mps 611 mmHg 33%
    16:00 +24°C° 0 mm 3 mps 610 mmHg 34%
    17:00 +21°C° 0 mm 3 mps 609 mmHg 42%
    18:00 +19°C° 0 mm 2 mps 609 mmHg 49%
    19:00 +16°C° 0 mm 2 mps 608 mmHg 57%
    20:00 +15°C° 0 mm 2 mps 608 mmHg 61%
    21:00 +14°C° 0 mm 1 mps 608 mmHg 65%
    22:00 +13°C° 0 mm 1 mps 608 mmHg 69%
    23:00 +13°C° 0 mm 1 mps 608 mmHg 70%
    Show more